| time (UTC) | temp F | wind direction | speed MPH | gust MPH | rain 1hr in | rain 24hr in | rain mn in | humidity % | barometer mb |
| 20260508231803 | 73 | 141 | 3.0 | 5.0 | 0.00 | 0.00 | 0.00 | 72 | 1008.3 |
| 20260508231253 | 73 | 124 | 4.0 | 9.0 | 0.00 | 0.00 | 0.00 | 72 | 1008.2 |
| 20260508230244 | 73 | 185 | 4.0 | 9.0 | 0.00 | 0.00 | 0.00 | 71 | 1008.2 |
| 20260508225725 | 73 | 161 | 4.0 | 10.0 | 0.00 | 0.00 | 0.00 | 71 | 1008.2 |
| 20260508225215 | 74 | 164 | 4.0 | 10.0 | 0.00 | 0.00 | 0.00 | 70 | 1008.2 |
| 20260508224705 | 74 | 180 | 4.0 | 9.0 | 0.00 | 0.00 | 0.00 | 71 | 1008.2 |
| 20260508224155 | 74 | 186 | 5.0 | 14.0 | 0.00 | 0.00 | 0.00 | 71 | 1008.2 |
| 20260508224147 | 74 | 170 | 5.0 | 11.0 | 0.00 | 0.00 | 0.00 | 71 | 1008.2 |
| 20260508223135 | 73 | 192 | 5.0 | 12.0 | 0.00 | 0.00 | 0.00 | 71 | 1008.2 |
| 20260508222625 | 73 | 137 | 5.0 | 12.0 | 0.00 | 0.00 | 0.00 | 70 | 1008.3 |
| 20260508222125 | 74 | 197 | 4.0 | 11.0 | 0.00 | 0.00 | 0.00 | 71 | 1008.3 |
| 20260508221615 | 73 | 139 | 5.0 | 11.0 | 0.00 | 0.00 | 0.00 | 70 | 1008.4 |
| 20260508221106 | 73 | 168 | 5.0 | 11.0 | 0.00 | 0.00 | 0.00 | 70 | 1008.4 |
| 20260508220555 | 73 | 156 | 5.0 | 11.0 | 0.00 | 0.00 | 0.00 | 70 | 1008.5 |
| 20260508220044 | 73 | 151 | 5.0 | 12.0 | 0.00 | 0.00 | 0.00 | 70 | 1008.5 |
| 20260508215535 | 72 | 147 | 5.0 | 13.0 | 0.00 | 0.00 | 0.00 | 70 | 1008.6 |
| 20260508215026 | 73 | 142 | 5.0 | 13.0 | 0.00 | 0.00 | 0.00 | 68 | 1008.7 |
| 20260508214525 | 73 | 139 | 5.0 | 11.0 | 0.00 | 0.00 | 0.00 | 67 | 1008.8 |
| 20260508214015 | 73 | 161 | 4.0 | 11.0 | 0.00 | 0.00 | 0.00 | 69 | 1008.8 |
| 20260508213505 | 72 | 144 | 3.0 | 8.0 | 0.00 | 0.00 | 0.00 | 72 | 1008.8 |
| 20260508212955 | 71 | 154 | 4.0 | 10.0 | 0.00 | 0.00 | 0.00 | 72 | 1009.0 |
| 20260508212445 | 71 | 232 | 5.0 | 10.0 | 0.00 | 0.00 | 0.00 | 72 | 1009.2 |
| 20260508211935 | 72 | 232 | 5.0 | 11.0 | 0.00 | 0.00 | 0.00 | 70 | 1009.3 |
| 20260508211425 | 72 | 202 | 5.0 | 11.0 | 0.00 | 0.00 | 0.00 | 69 | 1009.3 |
| 20260508210916 | 73 | 197 | 4.0 | 10.0 | 0.00 | 0.00 | 0.00 | 69 | 1009.4 |
| 20260508210455 | 72 | 151 | 3.0 | 9.0 | 0.00 | 0.00 | 0.00 | 69 | 1009.5 |
| 20260508205954 | 71 | 193 | 3.0 | 9.0 | 0.00 | 0.00 | 0.00 | 71 | 1009.4 |
| 20260508204838 | 70 | 144 | 2.0 | 8.0 | 0.00 | 0.00 | 0.00 | 74 | 1009.3 |
| 20260508204327 | 70 | 42 | 4.0 | 11.0 | 0.00 | 0.00 | 0.00 | 74 | 1009.4 |
| 20260508203817 | 70 | 219 | 5.0 | 11.0 | 0.00 | 0.00 | 0.00 | 72 | 1010.1 |
| 20260508203307 | 70 | 87 | 4.0 | 10.0 | 0.00 | 0.00 | 0.00 | 71 | 1008.2 |
| 20260508202757 | 71 | 104 | 2.0 | 9.0 | 0.00 | 0.00 | 0.00 | 70 | 1009.5 |
| 20260508202748 | 71 | 159 | 2.0 | 4.0 | 0.00 | 0.00 | 0.00 | 69 | 1010.0 |
| 20260508201737 | 71 | 146 | 2.0 | 10.0 | 0.00 | 0.00 | 0.00 | 68 | 1010.2 |
| 20260508201227 | 71 | 132 | 3.0 | 10.0 | 0.00 | 0.00 | 0.00 | 67 | 1010.1 |
| 20260508200717 | 71 | 177 | 4.0 | 10.0 | 0.00 | 0.00 | 0.00 | 66 | 1010.7 |
| 20260508200208 | 71 | 175 | 4.0 | 10.0 | 0.00 | 0.00 | 0.00 | 65 | 1011.0 |
| 20260508195655 | 72 | 209 | 3.0 | 9.0 | 0.00 | 0.00 | 0.00 | 65 | 1011.1 |
| 20260508195155 | 72 | 155 | 3.0 | 13.0 | 0.00 | 0.00 | 0.00 | 66 | 1011.0 |
| 20260508194646 | 72 | 242 | 4.0 | 13.0 | 0.00 | 0.00 | 0.00 | 66 | 1011.0 |
| 20260508194147 | 72 | 247 | 4.0 | 8.0 | 0.00 | 0.00 | 0.00 | 65 | 1010.6 |
| 20260508193637 | 72 | 207 | 4.0 | 11.0 | 0.00 | 0.00 | 0.00 | 65 | 1010.7 |
| 20260508193629 | 72 | 179 | 4.0 | 11.0 | 0.00 | 0.00 | 0.00 | 65 | 1010.6 |
| 20260508193117 | 73 | 151 | 5.0 | 10.0 | 0.00 | 0.00 | 0.00 | 65 | 1010.6 |
| 20260508192608 | 73 | 188 | 5.0 | 10.0 | 0.00 | 0.00 | 0.00 | 64 | 1010.6 |
| 20260508191557 | 73 | 160 | 4.0 | 13.0 | 0.00 | 0.00 | 0.00 | 64 | 1010.7 |
| 20260508191046 | 73 | 245 | 5.0 | 13.0 | 0.00 | 0.00 | 0.00 | 65 | 1011.0 |
| 20260508190529 | 73 | 192 | 5.0 | 11.0 | 0.00 | 0.00 | 0.00 | 65 | 1011.0 |
| 20260508190019 | 73 | 186 | 5.0 | 13.0 | 0.00 | 0.00 | 0.00 | 64 | 1011.1 |
| 20260508190010 | 73 | 180 | 6.0 | 11.0 | 0.00 | 0.00 | 0.00 | 64 | 1011.1 |
| 20260508185000 | 73 | 134 | 5.0 | 12.0 | 0.00 | 0.00 | 0.00 | 64 | 1011.1 |
| 20260508184449 | 73 | 182 | 5.0 | 12.0 | 0.00 | 0.00 | 0.00 | 64 | 1011.2 |
| 20260508183939 | 73 | 167 | 5.0 | 13.0 | 0.00 | 0.00 | 0.00 | 64 | 1011.2 |
| 20260508183429 | 73 | 168 | 5.0 | 13.0 | 0.00 | 0.00 | 0.00 | 64 | 1011.3 |
| 20260508182919 | 73 | 184 | 5.0 | 11.0 | 0.00 | 0.00 | 0.00 | 64 | 1011.4 |
| 20260508182409 | 73 | 134 | 5.0 | 11.0 | 0.00 | 0.00 | 0.00 | 62 | 1011.4 |
| 20260508181900 | 75 | 110 | 4.0 | 11.0 | 0.00 | 0.00 | 0.00 | 62 | 1011.5 |
| 20260508181349 | 75 | 173 | 3.0 | 9.0 | 0.00 | 0.00 | 0.00 | 62 | 1011.5 |
| 20260508180839 | 75 | 186 | 4.0 | 10.0 | 0.00 | 0.00 | 0.00 | 63 | 1011.5 |
| 20260508180329 | 74 | 120 | 4.0 | 10.0 | 0.00 | 0.00 | 0.00 | 63 | 1011.4 |
| 20260508175819 | 74 | 124 | 2.0 | 7.0 | 0.00 | 0.00 | 0.00 | 62 | 1011.5 |
| 20260508175309 | 74 | 84 | 3.0 | 9.0 | 0.00 | 0.00 | 0.00 | 64 | 1011.6 |
| 20260508174809 | 73 | 145 | 4.0 | 9.0 | 0.00 | 0.00 | 0.00 | 65 | 1011.9 |
| 20260508174259 | 73 | 135 | 4.0 | 12.0 | 0.00 | 0.00 | 0.00 | 64 | 1012.0 |
| 20260508173751 | 72 | 151 | 5.0 | 12.0 | 0.00 | 0.00 | 0.00 | 63 | 1012.1 |
| 20260508173233 | 71 | 103 | 5.0 | 10.0 | 0.00 | 0.00 | 0.00 | 65 | 1012.2 |
| 20260508172723 | 71 | 133 | 4.0 | 8.0 | 0.00 | 0.00 | 0.00 | 66 | 1012.3 |
| 20260508172214 | 71 | 130 | 3.0 | 7.0 | 0.00 | 0.00 | 0.00 | 65 | 1012.4 |
| 20260508171655 | 71 | 180 | 4.0 | 8.0 | 0.00 | 0.00 | 0.00 | 66 | 1012.5 |
| 20260508171146 | 71 | 176 | 4.0 | 8.0 | 0.00 | 0.00 | 0.00 | 65 | 1012.5 |
| 20260508170635 | 71 | 128 | 3.0 | 8.0 | 0.00 | 0.00 | 0.00 | 64 | 1012.5 |
| 20260508170126 | 72 | 201 | 3.0 | 9.0 | 0.00 | 0.00 | 0.00 | 64 | 1012.7 |
| 20260508165615 | 72 | 229 | 4.0 | 9.0 | 0.00 | 0.00 | 0.00 | 65 | 1012.7 |
| 20260508165608 | 71 | 143 | 5.0 | 11.0 | 0.00 | 0.00 | 0.00 | 66 | 1012.7 |
| 20260508164557 | 71 | 156 | 4.0 | 11.0 | 0.00 | 0.00 | 0.00 | 65 | 1012.8 |
| 20260508164548 | 70 | 99 | 4.0 | 9.0 | 0.00 | 0.00 | 0.00 | 64 | 1012.8 |
| 20260508163537 | 70 | 105 | 2.0 | 8.0 | 0.00 | 0.00 | 0.00 | 63 | 1012.8 |
| 20260508163030 | 70 | 147 | 2.0 | 9.0 | 0.00 | 0.00 | 0.00 | 66 | 1012.9 |
| 20260508162524 | 69 | 134 | 3.0 | 9.0 | 0.00 | 0.00 | 0.00 | 66 | 1013.1 |
| 20260508162010 | 68 | 147 | 4.0 | 10.0 | 0.00 | 0.00 | 0.00 | 65 | 1013.2 |
| 20260508161949 | 67 | 161 | 4.0 | 9.0 | 0.00 | 0.00 | 0.00 | 68 | 1013.2 |
| 20260508161554 | 68 | 105 | 4.0 | 10.0 | 0.00 | 0.00 | 0.00 | 68 | 1013.2 |
| 20260508160439 | 67 | 159 | 4.0 | 9.0 | 0.00 | 0.00 | 0.00 | 67 | 1013.3 |
| 20260508155934 | 67 | 189 | 4.0 | 8.0 | 0.00 | 0.00 | 0.00 | 68 | 1013.6 |
| 20260508155429 | 67 | 120 | 4.0 | 11.0 | 0.00 | 0.00 | 0.00 | 68 | 1013.7 |
| 20260508154930 | 67 | 153 | 3.0 | 8.0 | 0.00 | 0.00 | 0.00 | 68 | 1013.9 |
| 20260508154924 | 67 | 130 | 3.0 | 11.0 | 0.00 | 0.00 | 0.00 | 68 | 1013.8 |
| 20260508154419 | 67 | 147 | 3.0 | 9.0 | 0.00 | 0.00 | 0.00 | 69 | 1013.8 |
| 20260508153409 | 67 | 226 | 3.0 | 10.0 | 0.00 | 0.00 | 0.00 | 68 | 1013.9 |
| 20260508153401 | 66 | 176 | 3.0 | 10.0 | 0.00 | 0.00 | 0.00 | 69 | 1014.0 |
| 20260508152854 | 66 | 174 | 4.0 | 9.0 | 0.00 | 0.00 | 0.00 | 68 | 1014.0 |
| 20260508151857 | 66 | 149 | 4.0 | 8.0 | 0.00 | 0.00 | 0.00 | 68 | 1013.9 |
| 20260508151851 | 66 | 140 | 4.0 | 8.0 | 0.00 | 0.00 | 0.00 | 68 | 1014.0 |
| 20260508150853 | 66 | 152 | 3.0 | 7.0 | 0.00 | 0.00 | 0.00 | 68 | 1013.9 |
| 20260508150355 | 66 | 147 | 3.0 | 8.0 | 0.00 | 0.00 | 0.00 | 67 | 1014.0 |
| 20260508150351 | 66 | 183 | 3.0 | 7.0 | 0.00 | 0.00 | 0.00 | 67 | 1014.0 |
| 20260508145848 | 66 | 136 | 3.0 | 8.0 | 0.00 | 0.00 | 0.00 | 67 | 1014.0 |
| 20260508144841 | 66 | 159 | 3.0 | 7.0 | 0.00 | 0.00 | 0.00 | 67 | 1014.0 |
| 20260508144335 | 66 | 187 | 4.0 | 7.0 | 0.00 | 0.00 | 0.00 | 67 | 1014.0 |
| 20260508143828 | 66 | 134 | 4.0 | 9.0 | 0.00 | 0.00 | 0.00 | 66 | 1013.9 |
| 20260508143325 | 67 | 147 | 2.0 | 9.0 | 0.00 | 0.00 | 0.00 | 66 | 1014.0 |
| 20260508142828 | 67 | 185 | 2.0 | 8.0 | 0.00 | 0.00 | 0.00 | 67 | 1014.1 |
| 20260508142323 | 67 | 166 | 3.0 | 8.0 | 0.00 | 0.00 | 0.00 | 67 | 1014.1 |
| 20260508141819 | 66 | 141 | 3.0 | 8.0 | 0.00 | 0.00 | 0.00 | 67 | 1014.1 |
| 20260508141311 | 66 | 179 | 3.0 | 8.0 | 0.00 | 0.00 | 0.00 | 67 | 1014.2 |
| 20260508141302 | 65 | 130 | 4.0 | 8.0 | 0.00 | 0.00 | 0.00 | 67 | 1014.3 |
| 20260508140753 | 66 | 120 | 2.0 | 8.0 | 0.00 | 0.00 | 0.00 | 67 | 1014.3 |
| 20260508135740 | 66 | 80 | 1.0 | 6.0 | 0.00 | 0.00 | 0.00 | 67 | 1014.4 |
| 20260508135230 | 65 | 168 | 1.0 | 5.0 | 0.00 | 0.00 | 0.00 | 69 | 1014.4 |
| 20260508134723 | 65 | 164 | 2.0 | 6.0 | 0.00 | 0.00 | 0.00 | 69 | 1014.3 |
| 20260508134220 | 64 | 143 | 3.0 | 9.0 | 0.00 | 0.00 | 0.00 | 69 | 1014.2 |
| 20260508133704 | 64 | 141 | 3.0 | 8.0 | 0.00 | 0.00 | 0.00 | 69 | 1014.1 |
| 20260508133154 | 64 | 60 | 4.0 | 9.0 | 0.00 | 0.00 | 0.00 | 71 | 1014.1 |
| 20260508132644 | 63 | 151 | 3.0 | 9.0 | 0.00 | 0.00 | 0.00 | 72 | 1014.0 |
| 20260508132132 | 63 | 145 | 3.0 | 6.0 | 0.00 | 0.00 | 0.00 | 75 | 1014.0 |
| 20260508131623 | 61 | 138 | 4.0 | 7.0 | 0.00 | 0.00 | 0.00 | 78 | 1014.1 |
| 20260508131618 | 61 | 139 | 3.0 | 7.0 | 0.00 | 0.00 | 0.00 | 80 | 1014.2 |
| 20260508130607 | 61 | 159 | 2.0 | 6.0 | 0.00 | 0.00 | 0.00 | 81 | 1014.2 |
| 20260508130057 | 60 | 154 | 1.0 | 3.0 | 0.00 | 0.00 | 0.00 | 81 | 1014.4 |
| 20260508125546 | 60 | 147 | 1.0 | 4.0 | 0.00 | 0.00 | 0.00 | 82 | 1014.4 |
| 20260508125036 | 59 | 94 | 0.0 | 4.0 | 0.00 | 0.00 | 0.00 | 82 | 1014.4 |
| 20260508124527 | 59 | 85 | 0.0 | 0.0 | 0.00 | 0.00 | 0.00 | 82 | 1014.4 |
| 20260508124016 | 59 | 84 | 0.0 | 0.0 | 0.00 | 0.00 | 0.00 | 82 | 1014.3 |
| 20260508123507 | 59 | 84 | 0.0 | 0.0 | 0.00 | 0.00 | 0.00 | 81 | 1014.4 |
| 20260508123457 | 59 | 84 | 0.0 | 0.0 | 0.00 | 0.00 | 0.00 | 81 | 1014.4 |
| 20260508122446 | 59 | 88 | 0.0 | 0.0 | 0.00 | 0.00 | 0.00 | 81 | 1014.5 |
| 20260508121936 | 59 | 95 | 0.0 | 0.0 | 0.00 | 0.00 | 0.00 | 81 | 1014.6 |
| 20260508121426 | 59 | 95 | 0.0 | 0.0 | 0.00 | 0.00 | 0.00 | 81 | 1014.5 |
| 20260508120916 | 59 | 137 | 0.0 | 0.0 | 0.00 | 0.00 | 0.00 | 81 | 1014.3 |
| 20260508120358 | 59 | 136 | 0.0 | 0.0 | 0.00 | 0.00 | 0.00 | 81 | 1014.3 |
| 20260508115848 | 59 | 136 | 0.0 | 0.0 | 0.00 | 0.00 | 0.00 | 81 | 1014.2 |
| 20260508115338 | 59 | 137 | 0.0 | 0.0 | 0.00 | 0.00 | 0.00 | 81 | 1014.2 |
| 20260508114828 | 59 | 136 | 0.0 | 2.0 | 0.00 | 0.00 | 0.00 | 81 | 1014.2 |
| 20260508114314 | 59 | 136 | 1.0 | 3.0 | 0.00 | 0.00 | 0.00 | 80 | 1014.2 |
| 20260508113804 | 59 | 136 | 0.0 | 3.0 | 0.00 | 0.00 | 0.00 | 80 | 1014.3 |
| 20260508113254 | 59 | 136 | 0.0 | 1.0 | 0.00 | 0.00 | 0.00 | 80 | 1014.4 |
| 20260508112744 | 59 | 135 | 1.0 | 3.0 | 0.00 | 0.00 | 0.00 | 80 | 1014.3 |
| 20260508112228 | 59 | 135 | 2.0 | 4.0 | 0.00 | 0.00 | 0.00 | 80 | 1014.3 |
| 20260508111709 | 59 | 130 | 2.0 | 4.0 | 0.00 | 0.00 | 0.00 | 80 | 1014.3 |
| 20260508111700 | 59 | 109 | 0.0 | 3.0 | 0.00 | 0.00 | 0.00 | 80 | 1014.4 |
| 20260508110650 | 60 | 99 | 0.0 | 0.0 | 0.00 | 0.00 | 0.00 | 80 | 1014.6 |
| 20260508110140 | 60 | 97 | 0.0 | 2.0 | 0.00 | 0.00 | 0.00 | 80 | 1014.6 |
| 20260508105622 | 60 | 100 | 1.0 | 2.0 | 0.00 | 0.00 | 0.00 | 79 | 1014.6 |
| 20260508105112 | 60 | 154 | 0.0 | 2.0 | 0.00 | 0.00 | 0.00 | 79 | 1014.6 |
| 20260508104602 | 60 | 155 | 0.0 | 3.0 | 0.00 | 0.00 | 0.00 | 79 | 1014.3 |
| 20260508104052 | 60 | 152 | 1.0 | 3.0 | 0.00 | 0.00 | 0.00 | 79 | 1014.3 |
| 20260508103542 | 60 | 129 | 1.0 | 4.0 | 0.00 | 0.00 | 0.00 | 79 | 1014.2 |
| 20260508103032 | 60 | 126 | 1.0 | 4.0 | 0.00 | 0.00 | 0.00 | 79 | 1014.1 |
| 20260508102522 | 60 | 130 | 0.0 | 2.0 | 0.00 | 0.00 | 0.00 | 78 | 1013.9 |
| 20260508102012 | 60 | 130 | 1.0 | 2.0 | 0.00 | 0.00 | 0.00 | 78 | 1013.6 |
| 20260508101500 | 60 | 131 | 0.0 | 2.0 | 0.00 | 0.00 | 0.00 | 78 | 1013.3 |
| 20260508100950 | 60 | 130 | 0.0 | 2.0 | 0.00 | 0.00 | 0.00 | 78 | 1013.3 |
| 20260508100439 | 60 | 126 | 0.0 | 0.0 | 0.00 | 0.00 | 0.00 | 78 | 1013.5 |
| 20260508095929 | 60 | 124 | 0.0 | 0.0 | 0.00 | 0.00 | 0.00 | 78 | 1013.6 |
| 20260508095420 | 60 | 125 | 0.0 | 0.0 | 0.00 | 0.00 | 0.00 | 77 | 1013.7 |
| 20260508094910 | 60 | 123 | 0.0 | 0.0 | 0.00 | 0.00 | 0.00 | 77 | 1013.6 |
| 20260508094352 | 60 | 123 | 0.0 | 0.0 | 0.00 | 0.00 | 0.00 | 77 | 1013.8 |
| 20260508093854 | 60 | 123 | 0.0 | 0.0 | 0.00 | 0.00 | 0.00 | 77 | 1013.8 |
| 20260508093344 | 61 | 123 | 0.0 | 0.0 | 0.00 | 0.00 | 0.00 | 77 | 1013.8 |
| 20260508092834 | 61 | 122 | 0.0 | 2.0 | 0.00 | 0.00 | 0.00 | 76 | 1013.8 |
| 20260508092324 | 61 | 122 | 0.0 | 2.0 | 0.00 | 0.00 | 0.00 | 76 | 1013.7 |
| 20260508092316 | 61 | 122 | 1.0 | 2.0 | 0.00 | 0.00 | 0.00 | 76 | 1013.7 |
| 20260508091805 | 61 | 118 | 0.0 | 2.0 | 0.00 | 0.00 | 0.00 | 76 | 1013.8 |
| 20260508090752 | 61 | 118 | 1.0 | 4.0 | 0.00 | 0.00 | 0.00 | 76 | 1013.9 |
| 20260508090242 | 61 | 120 | 1.0 | 4.0 | 0.00 | 0.00 | 0.00 | 76 | 1013.6 |
| 20260508085732 | 61 | 139 | 0.0 | 4.0 | 0.00 | 0.00 | 0.00 | 76 | 1013.6 |
| 20260508085222 | 61 | 145 | 0.0 | 4.0 | 0.00 | 0.00 | 0.00 | 76 | 1013.9 |
| 20260508084710 | 61 | 144 | 1.0 | 4.0 | 0.00 | 0.00 | 0.00 | 76 | 1013.9 |
| 20260508084200 | 61 | 144 | 3.0 | 8.0 | 0.00 | 0.00 | 0.00 | 76 | 1013.9 |
| 20260508083650 | 61 | 162 | 3.0 | 8.0 | 0.00 | 0.00 | 0.00 | 76 | 1013.7 |
| 20260508083141 | 61 | 145 | 1.0 | 5.0 | 0.00 | 0.00 | 0.00 | 76 | 1013.7 |
| 20260508082631 | 61 | 188 | 0.0 | 0.0 | 0.00 | 0.00 | 0.00 | 76 | 1013.9 |
| 20260508082120 | 61 | 189 | 0.0 | 0.0 | 0.00 | 0.00 | 0.00 | 76 | 1014.0 |
| 20260508082103 | 61 | 191 | 0.0 | 0.0 | 0.00 | 0.00 | 0.00 | 75 | 1014.2 |
| 20260508081707 | 61 | 190 | 0.0 | 0.0 | 0.00 | 0.00 | 0.00 | 75 | 1014.1 |
| 20260508081051 | 62 | 192 | 0.0 | 0.0 | 0.00 | 0.00 | 0.00 | 75 | 1014.4 |
| 20260508080040 | 62 | 192 | 0.0 | 0.0 | 0.00 | 0.00 | 0.00 | 75 | 1014.6 |
| 20260508075530 | 62 | 191 | 0.0 | 0.0 | 0.00 | 0.00 | 0.00 | 75 | 1014.8 |
| 20260508075020 | 62 | 191 | 0.0 | 0.0 | 0.00 | 0.00 | 0.00 | 75 | 1015.0 |
| 20260508074510 | 62 | 189 | 0.0 | 0.0 | 0.00 | 0.00 | 0.00 | 74 | 1015.0 |
| 20260508074501 | 62 | 188 | 0.0 | 0.0 | 0.00 | 0.00 | 0.00 | 74 | 1015.1 |
| 20260508073451 | 62 | 188 | 0.0 | 0.0 | 0.00 | 0.00 | 0.00 | 74 | 1015.1 |
| 20260508072940 | 62 | 188 | 0.0 | 0.0 | 0.00 | 0.00 | 0.00 | 74 | 1015.0 |
| 20260508072432 | 62 | 188 | 0.0 | 0.0 | 0.00 | 0.00 | 0.00 | 74 | 1015.0 |
| 20260508071926 | 62 | 188 | 0.0 | 0.0 | 0.00 | 0.00 | 0.00 | 74 | 1014.9 |
| 20260508071422 | 62 | 179 | 0.0 | 0.0 | 0.00 | 0.00 | 0.00 | 74 | 1015.0 |
| 20260508070916 | 62 | 177 | 0.0 | 0.0 | 0.00 | 0.00 | 0.00 | 73 | 1015.0 |
| 20260508070406 | 62 | 178 | 0.0 | 0.0 | 0.00 | 0.00 | 0.00 | 73 | 1014.9 |
| 20260508065905 | 62 | 178 | 0.0 | 0.0 | 0.00 | 0.00 | 0.00 | 73 | 1014.9 |
| 20260508065401 | 62 | 177 | 0.0 | 0.0 | 0.00 | 0.00 | 0.00 | 72 | 1014.9 |
| 20260508065355 | 62 | 178 | 0.0 | 0.0 | 0.00 | 0.00 | 0.00 | 72 | 1014.9 |
| 20260508064849 | 62 | 177 | 0.0 | 0.0 | 0.00 | 0.00 | 0.00 | 72 | 1014.7 |
| 20260508063853 | 62 | 178 | 0.0 | 0.0 | 0.00 | 0.00 | 0.00 | 73 | 1014.8 |
| 20260508063848 | 62 | 178 | 0.0 | 0.0 | 0.00 | 0.00 | 0.00 | 72 | 1015.0 |
| 20260508062849 | 62 | 179 | 0.0 | 0.0 | 0.00 | 0.00 | 0.00 | 73 | 1015.0 |
| 20260508062845 | 62 | 180 | 0.0 | 0.0 | 0.00 | 0.00 | 0.00 | 73 | 1015.2 |
| 20260508061844 | 62 | 182 | 0.0 | 0.0 | 0.00 | 0.00 | 0.00 | 73 | 1015.1 |
| 20260508061340 | 62 | 186 | 0.0 | 0.0 | 0.00 | 0.00 | 0.00 | 72 | 1015.2 |
| 20260508060834 | 62 | 178 | 0.0 | 3.0 | 0.00 | 0.00 | 0.00 | 72 | 1015.3 |
| 20260508060326 | 62 | 177 | 0.0 | 3.0 | 0.00 | 0.00 | 0.00 | 72 | 1015.3 |
| 20260508055816 | 62 | 176 | 1.0 | 3.0 | 0.00 | 0.00 | 0.00 | 72 | 1015.4 |
| 20260508055403 | 62 | 172 | 1.0 | 3.0 | 0.00 | 0.00 | 0.00 | 72 | 1015.4 |
| 20260508054902 | 62 | 172 | 0.0 | 3.0 | 0.00 | 0.00 | 0.00 | 72 | 1015.4 |
| 20260508053749 | 62 | 172 | 1.0 | 3.0 | 0.00 | 0.00 | 0.00 | 71 | 1015.4 |
| 20260508053238 | 62 | 172 | 1.0 | 4.0 | 0.00 | 0.00 | 0.00 | 71 | 1015.4 |
| 20260508053230 | 62 | 153 | 1.0 | 4.0 | 0.00 | 0.00 | 0.00 | 71 | 1015.4 |
| 20260508052834 | 62 | 149 | 1.0 | 4.0 | 0.00 | 0.00 | 0.00 | 71 | 1015.5 |
| 20260508051723 | 62 | 154 | 1.0 | 4.0 | 0.00 | 0.00 | 0.00 | 70 | 1015.5 |
| 20260508051216 | 62 | 155 | 2.0 | 4.0 | 0.00 | 0.00 | 0.00 | 70 | 1015.5 |
| 20260508050711 | 62 | 151 | 1.0 | 4.0 | 0.00 | 0.00 | 0.00 | 70 | 1015.4 |
| 20260508050202 | 62 | 135 | 0.0 | 3.0 | 0.00 | 0.00 | 0.00 | 69 | 1015.3 |
| 20260508045654 | 62 | 135 | 0.0 | 0.0 | 0.00 | 0.00 | 0.00 | 69 | 1015.5 |
| 20260508045645 | 62 | 135 | 0.0 | 0.0 | 0.00 | 0.00 | 0.00 | 69 | 1015.5 |
| 20260508044634 | 62 | 135 | 0.0 | 0.0 | 0.00 | 0.00 | 0.00 | 69 | 1015.5 |
| 20260508044116 | 62 | 135 | 0.0 | 0.0 | 0.00 | 0.00 | 0.00 | 69 | 1015.4 |
| 20260508043606 | 62 | 135 | 0.0 | 0.0 | 0.00 | 0.00 | 0.00 | 68 | 1015.3 |
| 20260508043056 | 62 | 135 | 0.0 | 0.0 | 0.00 | 0.00 | 0.00 | 68 | 1015.3 |
| 20260508043039 | 62 | 135 | 0.0 | 0.0 | 0.00 | 0.00 | 0.00 | 68 | 1015.4 |
| 20260508042028 | 62 | 135 | 0.0 | 0.0 | 0.00 | 0.00 | 0.00 | 67 | 1015.5 |
| 20260508041518 | 63 | 136 | 0.0 | 0.0 | 0.00 | 0.00 | 0.00 | 67 | 1015.5 |
| 20260508041008 | 63 | 138 | 0.0 | 0.0 | 0.00 | 0.00 | 0.00 | 67 | 1015.5 |
| 20260508040959 | 63 | 139 | 0.0 | 0.0 | 0.00 | 0.00 | 0.00 | 67 | 1015.3 |
| 20260508035948 | 63 | 141 | 0.0 | 0.0 | 0.00 | 0.00 | 0.00 | 66 | 1015.4 |
| 20260508035438 | 63 | 140 | 0.0 | 2.0 | 0.00 | 0.00 | 0.00 | 66 | 1015.3 |
| 20260508034928 | 63 | 139 | 0.0 | 2.0 | 0.00 | 0.00 | 0.00 | 66 | 1015.1 |
| 20260508034419 | 63 | 143 | 0.0 | 2.0 | 0.00 | 0.00 | 0.00 | 66 | 1015.0 |
| 20260508033907 | 63 | 141 | 0.0 | 1.0 | 0.00 | 0.00 | 0.00 | 66 | 1015.2 |
| 20260508033351 | 63 | 141 | 0.0 | 0.0 | 0.00 | 0.00 | 0.00 | 65 | 1015.0 |
| 20260508032840 | 63 | 140 | 0.0 | 0.0 | 0.00 | 0.00 | 0.00 | 65 | 1015.0 |
| 20260508032331 | 63 | 140 | 0.0 | 0.0 | 0.00 | 0.00 | 0.00 | 65 | 1015.1 |
| 20260508031820 | 63 | 140 | 0.0 | 2.0 | 0.00 | 0.00 | 0.00 | 64 | 1014.9 |
| 20260508031319 | 63 | 141 | 0.0 | 1.0 | 0.00 | 0.00 | 0.00 | 64 | 1014.7 |
| 20260508030808 | 64 | 147 | 0.0 | 2.0 | 0.00 | 0.00 | 0.00 | 64 | 1014.7 |
| 20260508030258 | 64 | 148 | 0.0 | 1.0 | 0.00 | 0.00 | 0.00 | 64 | 1014.7 |
| 20260508025748 | 64 | 148 | 0.0 | 1.0 | 0.00 | 0.00 | 0.00 | 63 | 1014.8 |
| 20260508025238 | 64 | 149 | 0.0 | 3.0 | 0.00 | 0.00 | 0.00 | 62 | 1014.8 |
| 20260508024729 | 64 | 149 | 0.0 | 3.0 | 0.00 | 0.00 | 0.00 | 62 | 1014.8 |
| 20260508024218 | 64 | 150 | 1.0 | 3.0 | 0.00 | 0.00 | 0.00 | 62 | 1014.6 |
| 20260508023700 | 64 | 148 | 1.0 | 3.0 | 0.00 | 0.00 | 0.00 | 62 | 1014.7 |
| 20260508023149 | 64 | 147 | 1.0 | 4.0 | 0.00 | 0.00 | 0.00 | 61 | 1014.6 |
| 20260508022640 | 64 | 153 | 1.0 | 4.0 | 0.00 | 0.00 | 0.00 | 61 | 1014.6 |
| 20260508022130 | 65 | 164 | 1.0 | 3.0 | 0.00 | 0.00 | 0.00 | 61 | 1014.7 |
| 20260508021620 | 65 | 166 | 1.0 | 3.0 | 0.00 | 0.00 | 0.00 | 61 | 1014.7 |
| 20260508021611 | 65 | 181 | 0.0 | 2.0 | 0.00 | 0.00 | 0.00 | 61 | 1014.6 |
| 20260508020600 | 65 | 182 | 0.0 | 2.0 | 0.00 | 0.00 | 0.00 | 60 | 1014.4 |
| 20260508020050 | 65 | 182 | 0.0 | 2.0 | 0.00 | 0.00 | 0.00 | 60 | 1014.4 |
| 20260508020040 | 65 | 182 | 1.0 | 4.0 | 0.00 | 0.00 | 0.00 | 59 | 1014.5 |
| 20260508015031 | 65 | 182 | 1.0 | 4.0 | 0.00 | 0.00 | 0.00 | 59 | 1014.6 |
| 20260508014520 | 65 | 182 | 1.0 | 4.0 | 0.00 | 0.00 | 0.00 | 59 | 1014.6 |
| 20260508014511 | 66 | 159 | 2.0 | 5.0 | 0.00 | 0.00 | 0.00 | 59 | 1014.5 |
| 20260508013501 | 66 | 151 | 2.0 | 5.0 | 0.00 | 0.00 | 0.00 | 59 | 1014.6 |
| 20260508012945 | 66 | 137 | 2.0 | 6.0 | 0.00 | 0.00 | 0.00 | 58 | 1014.4 |
| 20260508012439 | 66 | 143 | 3.0 | 6.0 | 0.00 | 0.00 | 0.00 | 58 | 1014.4 |
| 20260508011939 | 66 | 161 | 3.0 | 7.0 | 0.00 | 0.00 | 0.00 | 58 | 1014.4 |
| 20260508011435 | 66 | 159 | 2.0 | 7.0 | 0.00 | 0.00 | 0.00 | 58 | 1014.5 |
| 20260508010933 | 66 | 146 | 2.0 | 5.0 | 0.00 | 0.00 | 0.00 | 58 | 1014.4 |
| 20260508010434 | 66 | 157 | 2.0 | 5.0 | 0.00 | 0.00 | 0.00 | 58 | 1014.4 |
| 20260508005927 | 67 | 158 | 2.0 | 5.0 | 0.00 | 0.00 | 0.00 | 58 | 1014.5 |
| 20260508005414 | 67 | 164 | 1.0 | 4.0 | 0.00 | 0.00 | 0.00 | 59 | 1014.6 |
| 20260508004905 | 67 | 168 | 1.0 | 4.0 | 0.00 | 0.00 | 0.00 | 59 | 1014.6 |
| 20260508004354 | 67 | 178 | 1.0 | 3.0 | 0.00 | 0.00 | 0.00 | 58 | 1014.5 |
| 20260508003844 | 67 | 179 | 1.0 | 3.0 | 0.00 | 0.00 | 0.00 | 58 | 1014.4 |
| 20260508003333 | 67 | 179 | 1.0 | 4.0 | 0.00 | 0.00 | 0.00 | 58 | 1014.4 |
| 20260508003325 | 67 | 186 | 2.0 | 4.0 | 0.00 | 0.00 | 0.00 | 58 | 1014.4 |
| 20260508002307 | 67 | 182 | 2.0 | 6.0 | 0.00 | 0.00 | 0.00 | 58 | 1014.6 |
| 20260508001806 | 67 | 156 | 2.0 | 6.0 | 0.00 | 0.00 | 0.00 | 58 | 1014.6 |
| 20260508001248 | 67 | 217 | 2.0 | 4.0 | 0.00 | 0.00 | 0.00 | 58 | 1014.6 |
| 20260508000740 | 68 | 213 | 1.0 | 4.0 | 0.00 | 0.00 | 0.00 | 58 | 1014.7 |
| 20260508000235 | 68 | 207 | 1.0 | 4.0 | 0.00 | 0.00 | 0.00 | 57 | 1014.9 |
| 20260507235730 | 68 | 205 | 1.0 | 7.0 | 0.00 | 0.00 | 0.00 | 57 | 1014.6 |
| 20260507235219 | 68 | 220 | 2.0 | 7.0 | 0.00 | 0.00 | 0.00 | 58 | 1014.7 |
| 20260507234712 | 68 | 222 | 2.0 | 6.0 | 0.00 | 0.00 | 0.00 | 59 | 1014.8 |
| 20260507234206 | 68 | 220 | 2.0 | 7.0 | 0.00 | 0.00 | 0.00 | 58 | 1014.8 |
| 20260507233700 | 68 | 220 | 3.0 | 9.0 | 0.00 | 0.00 | 0.00 | 58 | 1014.7 |
| 20260507233147 | 68 | 161 | 4.0 | 9.0 | 0.00 | 0.00 | 0.00 | 58 | 1014.7 |
| 20260507232648 | 68 | 173 | 4.0 | 11.0 | 0.00 | 0.00 | 0.00 | 57 | 1014.7 |
| 20260507232130 | 68 | 202 | 4.0 | 11.0 | 0.00 | 0.00 | 0.00 | 57 | 1014.8 |